Regional Weather Roundup
Issued by NWS

Home | Current Version | Previous Version | Graphics & Text | Print | Product List | Glossary On
Versions: 1 2 3 4 5 6 7 8 9 10 11 12 13 14 15 16 17 18 19 20 21 22 23 24 25 26 27 28 29 30 31 32 33 34 35 36 37 38 39 40 41 42 43 44 45 46 47 48 49 50
000
ASUS43 KIND 251009
RWRIN

WEATHER ROUNDUP FOR INDIANA
NATIONAL WEATHER SERVICE INDIANAPOLIS IN
600 AM EDT SAT APR 25 2015

NOTE: "FAIR" INDICATES FEW OR NO CLOUDS BELOW 12,000 FEET WITH NO
SIGNIFICANT WEATHER AND/OR OBSTRUCTIONS TO VISIBILITY.

* - STATION DOES NOT REPORT WEATHER SUCH AS PRECIPITATION OR FOG.

+ - STATION NOT QUALITY CONTROLLED BY THE NATIONAL WEATHER SERVICE.
    USE DATA WITH CAUTION...ESPECIALLY DEWPOINT AND RELATIVE
    HUMIDITY OBSERVATIONS.

INZ001>003-010>013-019-020-251100-
NORTHWEST INDIANA

CITY           SKY/WX    TMP DP  RH WIND       PRES   REMARKS
GARY /AIRPORT/ CLOUDY    46  36  66 E12G23    29.80F
KNOX *+        MOCLDY    43  30  61 E12G17    29.82R
LA PORTE +     CLOUDY    45  40  83 E13       29.83R
MICHIGAN CITY+ CLOUDY    43  34  70 E8        29.82S
MONTICELLO +   RAIN      47  41  79 E6        29.78R
RENSSELAER +   LGT RAIN  45  43  93 NE9       29.79F
VALPARAISO     CLOUDY    43  38  82 E14       29.80F

$$

LMZ046-743>745-251100-
SOUTHERN LAKE MICHIGAN

STATION/POSITION TIME  TEMP    WIND        PRES    WAVE
                       AIR SEA DIR/SP/G            HT
                 (UTC) (F)     (DEG/KT/KT) (MB)    (FT)
BURNS HARBOR     1000   45     100/ 11/ 15 1009.5F
MICHIGAN CITY    1000   45      70/ 14/ 18   N/A
5NW MICH CITY    1000   45 44  110/ 14/ 19   N/A     3

$$

INZ004-005-014>016-021>024-251100-
NORTH CENTRAL INDIANA

CITY           SKY/WX    TMP DP  RH WIND       PRES   REMARKS
GOSHEN         MOCLDY    42  37  82 E18       29.83F
LOGANSPORT +   LGT RAIN  46  34  61 E9        29.81R
PERU/GRISSOM   CLOUDY    48  36  61 E12       29.78S
ROCHESTER +    MOCLDY    46  37  71 E16G22    29.82S
SOUTH BEND     CLOUDY    44  38  79 E10       29.85S
WARSAW +       MOCLDY    41  36  81 E16G25    29.81F

$$

INZ006>009-017-018-025>027-251100-
NORTHEAST INDIANA

CITY           SKY/WX    TMP DP  RH WIND       PRES   REMARKS
ANGOLA *+      CLOUDY    39  36  87 E12       29.87S
AUBURN +       CLOUDY    41  36  81 E14       29.88R
FORT WAYNE     CLOUDY    43  34  70 E24G31    29.84F
HUNTINGTON +   MOCLDY    44  34  68 E12G17    29.82F

$$

INZ028-029-035-036-043>045-051>053-251100-
WEST CENTRAL INDIANA

CITY           SKY/WX    TMP DP  RH WIND       PRES   REMARKS
CRAWFORDSVL +  LGT SNOW  46  40  81 E8        29.76S
GREENCASTLE +  CLOUDY    46  41  81 E6        29.76R
LAFAYETTE      RAIN      48  43  82 E7        29.76F
TERRE HAUTE    CLOUDY    50  45  83 E7        29.73F

$$

INZ030>032-037>040-046>048-054>057-064-065-251100-
CENTRAL INDIANA

CITY           SKY/WX    TMP DP  RH WIND       PRES   REMARKS
CP ATTERBURY + CLOUDY    48  45  87 E6        29.80S
FRANKFORT +    LGT RAIN  51  40  65 E10       29.78F
GREENWOOD *+   CLOUDY    48  43  81 E9        29.78F
INDIANAPOLIS   CLOUDY    49  44  83 E14       29.75F
-EAGLE CREEK   CLOUDY    49  44  83 E9        29.77F
KOKOMO *+      CLOUDY    48  36  61 E12       29.78F
MARION +       CLOUDY    48  35  60 E13       29.79F
MT COMFORT *+  CLOUDY    48  36  61 SE9G16    29.79F
SHELBYVILLE    CLOUDY    50  44  80 E12       29.78F
ZIONSVILLE +   LGT RAIN  50  40  68 SE9G16    29.79S

$$

INZ033-034-041-042-049-050-058-059-251100-
EAST CENTRAL INDIANA

CITY           SKY/WX    TMP DP  RH WIND       PRES   REMARKS
MUNCIE         CLOUDY    50  36  58 SE10      29.80F

$$

INZ060-061-067>069-081>083-085>088-251100-
SOUTHWEST INDIANA

CITY           SKY/WX    TMP DP  RH WIND       PRES   REMARKS
EVANSVILLE     HVY RAIN  54  47  77 E3        29.70F VSB 1
HUNTINGBURG *+ CLOUDY    52  45  76 E7        29.72F
WASHINGTON +   LGT RAIN  53  45  74 SE8       29.72F

$$

INZ062-063-066-070>080-084-089>092-251100-
SOUTH CENTRAL AND SOUTHEAST INDIANA

CITY           SKY/WX    TMP DP  RH WIND       PRES   REMARKS
BEDFORD +      CLOUDY    52  43  71 E10       29.76F
BLOOMINGTON    CLOUDY    51  45  79 SE10      29.74F
MADISON *+     CLOUDY    50  39  66 E8        29.81F
NORTH VERNON + CLOUDY    50  50 100 E6        29.79F
SEYMOUR +      CLOUDY    52  45  76 E6        29.78F

$$



USA.gov is the U.S. government's official web portal to all federal, state and local government web resources and services.